Flag for China

Past Weather in Pudong, Shanghai Municipality, China — Yesterday and Last 2 Weeks

Now
72 °F

Clear.


Feels Like: 74 °F
Forecast: 80 / 67 °F
Wind: 3 mph from East

Location: Shanghai Hongqiao Airport
Current Time: Sep 29, 2020 at 5:59:11 am
Latest Report: Sep 29, 2020 at 5:30 am
Visibility: 10 mi
Pressure29.89 "Hg
Humidity: 73%
Dew Point: 63 °F
Location of PudongLocation

Past Weather in Pudong — Graph

°F

Pudong Temperature Yesterday

Maximum temperature yesterday: 81 °F (at 11:30 am)
Minimum temperature yesterday: 72 °F (at 12:30 am)
Average temperature yesterday: 75 °F

High & Low Weather Summary for the Past Weeks

 TemperatureHumidityPressure
High82 °F (Sep 14, 11:30 am)100% (Sep 14, 3:30 pm)30.09 "Hg (Sep 14, 3:30 pm)
Low63 °F (Sep 18, 2:30 am)30% (Sep 20, 4:00 pm)29.80 "Hg (Sep 15, 2:30 pm)
Average73 °F77%29.96 "Hg
* Reported Sep 14 4:00 am — Sep 29 4:30 am, Pudong. Weather by CustomWeather, © 2020

Note: Actual official high and low records may vary slightly from our data, if they occured in-between our weather recording intervals... More about our weather records

Pudong Weather History for the Previous 24 Hours

Scroll right to see more
 ConditionsComfort  
Time TempWeatherWind HumidityBarometerVisibility
4:30 am
Tue, Sep 29
72 °FClear.3 mph73%29.89 "Hg10 mi
4:00 am72 °FClear.3 mph73%29.89 "Hg10 mi
3:30 am72 °FClear.3 mph73%29.89 "Hg10 mi
3:00 am70 °FClear.3 mph83%29.92 "Hg10 mi
2:30 am72 °FClear.1 mph73%29.92 "Hg10 mi
2:00 am72 °FClear.1 mph73%29.95 "Hg10 mi
1:30 am72 °FClear.3 mph73%29.92 "Hg10 mi
1:00 am72 °FClear.6 mph73%29.95 "Hg10 mi
12:30 am72 °FClear.6 mph73%29.95 "Hg10 mi
12:00 am72 °FClear.6 mph73%29.95 "Hg10 mi
11:30 pm
Mon, Sep 28
72 °FPassing clouds.6 mph73%29.95 "HgN/A
11:00 pm73 °FPassing clouds.3 mph69%29.95 "HgN/A
10:30 pm73 °FPassing clouds.6 mph69%29.95 "HgN/A
10:00 pm73 °FPassing clouds.6 mph69%29.95 "HgN/A
9:30 pm73 °FPassing clouds.8 mph69%29.95 "HgN/A
8:30 pm73 °FPassing clouds.6 mph69%29.95 "HgN/A
8:00 pm73 °FClear.8 mph69%29.95 "Hg10 mi
7:30 pm73 °FClear.8 mph69%29.95 "Hg10 mi
7:00 pm75 °FPassing clouds.8 mph65%29.95 "HgN/A
6:30 pm75 °FClear.8 mph61%29.92 "Hg10 mi
6:00 pm75 °FClear.10 mph61%29.92 "Hg10 mi
5:30 pm77 °FSunny.10 mph54%29.92 "Hg10 mi
5:00 pm79 °FPassing clouds.6 mph54%29.92 "HgN/A
4:30 pm79 °FSunny.8 mph54%29.92 "Hg10 mi
4:00 pm79 °FPassing clouds.8 mph51%29.92 "HgN/A
3:30 pm79 °FSunny.8 mph54%29.92 "Hg10 mi
3:00 pm79 °FSunny.8 mph54%29.92 "Hg10 mi
2:30 pm79 °FSunny.8 mph54%29.92 "Hg10 mi
2:00 pm79 °FSprinkles. Clear.6 mph54%29.92 "HgN/A
1:30 pm81 °FPassing clouds.8 mph48%29.92 "HgN/A
1:00 pm81 °FPartly sunny.6 mph51%29.95 "HgN/A
12:30 pm81 °FPartly sunny.8 mph54%29.95 "HgN/A
12:00 pm81 °FPartly sunny.6 mph51%29.98 "HgN/A
11:30 am81 °FPartly sunny.8 mph51%29.98 "HgN/A
11:00 am79 °FPartly sunny.6 mph54%30.01 "HgN/A
10:30 am79 °FPartly sunny.6 mph48%30.01 "HgN/A
10:00 am79 °FPartly sunny.6 mph54%30.01 "HgN/A
9:30 am77 °FPartly sunny.8 mph61%30.01 "HgN/A
9:00 am75 °FPartly sunny.6 mph69%30.01 "HgN/A
8:30 am77 °FScattered clouds.6 mph65%30.01 "HgN/A
8:00 am75 °FSunny.6 mph69%30.01 "Hg10 mi
7:30 am75 °FPassing clouds.3 mph69%30.01 "HgN/A
7:00 am72 °FPassing clouds.3 mph78%30.01 "HgN/A
6:30 am72 °FPassing clouds.3 mph78%30.01 "HgN/A
6:00 am72 °FSunny.1 mph78%30.01 "Hg10 mi
5:30 am72 °FClear.1 mph78%29.98 "Hg10 mi
5:00 am72 °FClear.1 mph78%29.98 "Hg10 mi
Weather by CustomWeather, © 2020

See weather overview